Iowa Falls Municipal Airport
Saturday 10:35 PM
Temperature35° (48°/24°)
Dew Point25°
Relative Humidity68
%
Visibility10
mi
Pressure1021.0
mb
Wind Direction
Wind SpeedCalm
Precipitation Today0.00"

Last 30 Observations

Time PresWx Temp DP Feels RH% Vsby Pressure Ceiling Direction Speed 1h Precip
10:35 PM 35° 25° 68
%
10
mi
1021.0
mb
Calm 0.00"
10:15 PM 35° 26° 70
%
10
mi
1021.3
mb
Calm 0.00"
9:55 PM 37° 26° 64
%
10
mi
1021.3
mb
Calm 0.00"
9:35 PM 37° 26° 65
%
10
mi
1021.3
mb
Calm 0.00"
9:15 PM 39° 25° 56
%
10
mi
1021.3
mb
Calm 0.00"
8:55 PM 39° 25° 56
%
10
mi
1021.3
mb
Calm 0.00"
8:35 PM 40° 25° 54
%
10
mi
1021.0
mb
Calm 0.00"
8:15 PM 42° 23° 40°47
%
10
mi
1021.0
mb
N
10°
3
mph
0.00"
7:55 PM 43° 26° 41°51
%
10
mi
1021.0
mb
NE
40°
3
mph
0.00"
7:35 PM 45° 26° 43°47
%
10
mi
1021.0
mb
NE
40°
3
mph
0.00"
7:15 PM 46° 22° 45°39
%
10
mi
1021.0
mb
ENE
60°
3
mph
0.00"
6:55 PM 47° 22° 44°38
%
10
mi
1021.0
mb
ENE
60°
5
mph
0.00"
6:35 PM 47° 23° 46°38
%
10
mi
1021.0
mb
NE
50°
3
mph
0.00"
6:15 PM 47° 23° 45°37
%
10
mi
1020.7
mb
NNE
30°
6
mph
0.00"
5:55 PM 47° 23° 45°38
%
10
mi
1021.0
mb
E
80°
5
mph
0.00"
5:35 PM 47° 23° 45°38
%
10
mi
1021.0
mb
NNE
30°
6
mph
0.00"
5:15 PM 47° 24° 46°39
%
10
mi
1021.0
mb
NE
50°
3
mph
0.00"
4:55 PM 47° 24° 40
%
10
mi
1021.0
mb
Calm 0.00"
4:35 PM 47° 25° 44°42
%
10
mi
1021.3
mb
ENE
70°
6
mph
0.00"
4:15 PM 47° 28° 43°47
%
10
mi
1021.3
mb
NNE
30°
8
mph
0.00"
3:55 PM 46° 27° 44°48
%
10
mi
1021.7
mb
NE
50°
5
mph
0.00"
3:35 PM 45° 28° 40°51
%
10
mi
1022.0
mb
ENE
70°
9
mph
0.00"
3:15 PM 44° 28° 41°52
%
10
mi
1022.4
mb
N
10°
6
mph
0.00"
2:55 PM 44° 28° 39°53
%
10
mi
1022.7
mb
E
90°
8
mph
0.00"
2:35 PM 42° 27° 38°55
%
10
mi
1023.0
mb
NE
40°
6
mph
0.00"
2:15 PM 41° 25° 36°53
%
10
mi
1023.4
mb
12,000
ft
NNE
20°
7
mph
0.00"
1:55 PM 40° 27° 35°59
%
10
mi
1023.7
mb
ENE
70°
7
mph
0.00"
1:35 PM 38° 26° 33°61
%
10
mi
1023.7
mb
NNE
20°
7
mph
0.00"
1:15 PM 38° 26° 31°61
%
10
mi
1024.1
mb
NNE
30°
9
mph
0.00"
12:55 PM 36° 25° 29°63
%
10
mi
1024.1
mb
NNE
20°
9
mph
0.00"